Washington, VA

12:30 AM EST on January 21, 2018 (GMT -0500)
Ronald Reagan Washington National

Weather History for KDCA - November, 2014

Change the Weather History Date:

Thursday, November 27, 2014

  Actual Average Record
Temperature  
Mean Temperature 44 °F 46 °F  
Max Temperature 49 °F 53 °F 75 °F (1896)
Min Temperature 38 °F 38 °F 14 °F (1938)
Degree Days  
Heating Degree Days 21 20  
Month to date heating degree days 444 406  
Since 1 July heating degree days 546 635  
Cooling Degree Days 0 0  
Month to date cooling degree days 0 0  
Year to date cooling degree days 1712 1547  
Moisture  
Dew Point 30 °F    
Average Humidity 62    
Maximum Humidity 82    
Minimum Humidity 42    
Precipitation  
Precipitation T in 0.11 in 1.82 in (1944)
Month to date precipitation 2.64 2.85  
Year to date precipitation 40.91 36.37  
Snow  
Snow 0.00 in 0.00 in 2.30 in (1978)
Month to date snowfall T 0.4  
Since 1 July snowfall T 0.4  
Snow Depth 0.00 in    
Sea Level Pressure  
Sea Level Pressure 30.08 in    
Wind  
Wind Speed 7 mph (NW)    
Max Wind Speed 20 mph    
Max Gust Speed 24 mph    
Visibility 10 miles    
Events      
T = Trace of Precipitation, MM = Missing Value Source: NWS Daily Summary

Daily Weather History Graph

Daily Weather History Graph

Search for Another Location

Airport or City:

Trip Planner

Search our weather history database for the weather conditions in past years. The results will help you decide how hot, cold, wet, or windy it might be!

Date:

Astronomy

Nov. 27, 2014 Rise Set
Actual Time 7:03 AM EST 4:47 PM EST
Civil Twilight 6:34 AM EST 5:16 PM EST
Nautical Twilight 6:01 AM EST 5:49 PM EST
Astronomical Twilight 5:29 AM EST 6:21 PM EST
Moon 11:18 AM EST (11/27) 10:24 PM EST (11/27)
Length of Visible Light 10h 42m
Length of Day
9h 44m
Waxing Crescent, 31% of the Moon is Illuminated
Nov 27
Waxing Crescent
Nov 29
First Quarter
Dec 6
Full
Dec 14
Last Quarter
Dec 21
New

Hourly Weather History & Observations

Time (EST) Temp. Windchill Dew Point Humidity Pressure Visibility Wind Dir Wind Speed Gust Speed Precip Events Conditions
12:52 AM 39.0 °F 35.7 °F 32.0 °F 76% 30.01 in 10.0 mi WNW 4.6 mph - N/A   Mostly Cloudy
1:52 AM 37.9 °F 32.7 °F 32.0 °F 79% 30.04 in 10.0 mi West 6.9 mph - N/A   Mostly Cloudy
2:52 AM 39.0 °F 35.7 °F 32.0 °F 76% 30.03 in 10.0 mi WNW 4.6 mph - N/A   Mostly Cloudy
3:52 AM 39.0 °F - 30.9 °F 73% 30.03 in 10.0 mi Calm Calm - N/A   Mostly Cloudy
4:52 AM 39.0 °F - 32.0 °F 76% 30.03 in 10.0 mi Calm Calm - N/A   Overcast
5:52 AM 39.0 °F - 32.0 °F 76% 30.04 in 10.0 mi Calm Calm - N/A   Overcast
6:25 AM 39.2 °F 37.0 °F 30.2 °F 70% 30.04 in 10.0 mi WNW 3.5 mph - N/A   Mostly Cloudy
6:52 AM 39.0 °F 35.7 °F 32.0 °F 76% 30.04 in 10.0 mi North 4.6 mph - N/A   Mostly Cloudy
7:52 AM 39.9 °F 35.8 °F 33.1 °F 77% 30.05 in 10.0 mi North 5.8 mph - 0.00 in   Mostly Cloudy
8:52 AM 41.0 °F 36.4 °F 32.0 °F 70% 30.07 in 10.0 mi NW 6.9 mph - 0.00 in   Overcast
9:52 AM 42.1 °F - 33.1 °F 70% 30.07 in 10.0 mi Calm Calm - N/A   Mostly Cloudy
10:52 AM 44.1 °F 42.5 °F 34.0 °F 68% 30.07 in 10.0 mi North 3.5 mph - N/A   Mostly Cloudy
11:52 AM 46.0 °F 42.5 °F 33.1 °F 61% 30.05 in 10.0 mi NW 6.9 mph - N/A   Mostly Cloudy
12:52 PM 46.0 °F 41.0 °F 32.0 °F 58% 30.06 in 10.0 mi NW 10.4 mph - N/A   Mostly Cloudy
1:52 PM 48.2 °F - 28.4 °F 46% 30.05 in 10.0 mi NW 9.2 mph - N/A   Scattered Clouds
2:52 PM 48.0 °F - 26.1 °F 42% 30.05 in 10.0 mi NNW 13.8 mph 18.4 mph N/A   Scattered Clouds
3:52 PM 46.9 °F - 26.1 °F 44% 30.07 in 10.0 mi WNW 11.5 mph - N/A   Mostly Cloudy
4:52 PM 44.1 °F 38.1 °F 26.1 °F 49% 30.10 in 10.0 mi NW 11.5 mph 23.0 mph N/A   Mostly Cloudy
5:52 PM 42.1 °F 37.1 °F 28.0 °F 58% 30.12 in 10.0 mi WNW 8.1 mph - N/A   Mostly Cloudy
6:52 PM 41.0 °F 36.4 °F 28.0 °F 60% 30.15 in 10.0 mi WNW 6.9 mph - N/A   Scattered Clouds
7:52 PM 39.9 °F 35.8 °F 27.0 °F 60% 30.16 in 10.0 mi West 5.8 mph - N/A   Partly Cloudy
8:52 PM 41.0 °F 35.2 °F 28.0 °F 60% 30.17 in 10.0 mi WNW 9.2 mph - N/A   Overcast
9:52 PM 41.0 °F 36.4 °F 27.0 °F 57% 30.18 in 10.0 mi WNW 6.9 mph - N/A   Mostly Cloudy
10:52 PM 41.0 °F 35.2 °F 27.0 °F 57% 30.18 in 10.0 mi WNW 9.2 mph - N/A   Mostly Cloudy
11:52 PM 39.0 °F 31.8 °F 26.1 °F 60% 30.19 in 10.0 mi West 11.5 mph - N/A   Scattered Clouds